{"data":{"norad_id":67582,"intl_designator":"2026-016X","name":"STARLINK-36609","alt_names":[],"object_type":"PAYLOAD","status":"ACTIVE","operator":null,"country":"US","launch_date":"2026-01-25","launch_site_code":"AFWTR","launch_vehicle":null,"mission":null,"orbit_class":"UNKNOWN","rcs_meters":null,"size_class":null,"mass_kg":null,"dimensions":null,"purposes":["comms"],"wikipedia_slug":null,"has_3d_model":false,"image_url":null,"decayed_at":null,"tle_current":{"epoch":"2026-09-19T21:07:59.418912Z","epoch_age_seconds":125818,"freshness":"FRESH","line1":"1 67582U 26016X   26262.88054883  .00011304  00000+0  35183-3 0  9996","line2":"2 67582  97.2865 321.5234 0000347 221.3215 138.8001 15.33454823 36623","mean_motion":15.33454823,"eccentricity":3.47e-5,"inclination_deg":97.2865,"raan_deg":321.5234,"arg_perigee_deg":221.3215,"mean_anomaly_deg":138.8001,"bstar":0.00035183,"rev_number":3662,"period_min":93.905603112769,"perigee_km":465.27647360931,"apogee_km":465.75142298512,"semimajor_km":6843.6509482972,"source":"CELESTRAK","updated_at":"2026-09-20T09:00:43.598968Z"}}}